Regional Weather Roundup
Issued by NWS Raleigh/Durham, NC

Home | Current Version | Previous Version | Text Only | Print | Product List | Glossary On
Versions: 1 2 3 4 5 6 7 8 9 10 11 12 13 14 15 16 17 18 19 20 21 22 23 24 25 26 27
000
ASUS42 KRAH 261310
RWRRAH
NORTH CAROLINA WEATHER ROUNDUP
NATIONAL WEATHER SERVICE RALEIGH NC
900 AM EDT MON SEP 26 2016

NOTE: "FAIR" INDICATES FEW OR NO CLOUDS BELOW 12,000 FEET WITH NO
SIGNIFICANT WEATHER AND/OR OBSTRUCTIONS TO VISIBILITY.

NCZ001-053-055-056-065-067-261400-
WESTERN NORTH CAROLINA

CITY           SKY/WX    TMP DP  RH WIND       PRES   REMARKS
ASHEVILLE      SUNNY     70  64  81 S6        30.16S
JEFFERSON      CLOUDY    64  64  98 CALM      30.17F FOG
HICKORY        CLOUDY    69  69 100 CALM      30.12S
RUTHERFORDTON  MOSUNNY   70  70 100 CALM      30.14R
MOUNT AIRY     FOG       68  66  94 S5        30.14S VSB 1/4
BOONE          PTSUNNY   67  64  89 CALM      30.18F
$$

NCZ021-022-025-041-071-084-088-261400-
CENTRAL NORTH CAROLINA

CITY           SKY/WX    TMP DP  RH WIND       PRES   REMARKS
CHARLOTTE      LGT RAIN  70  65  84 SE9       30.12S
GREENSBORO     CLOUDY    67  64  90 S9        30.12S
WINSTON-SALEM  CLOUDY    67  64  90 S7        30.13S
RALEIGH-DURHAM CLOUDY    66  61  84 VRB5      30.14S
FORT BRAGG     CLOUDY    68  61  78 N3        30.12R
FAYETTEVILLE   CLOUDY    69  61  75 CALM      30.12R
BURLINGTON     CLOUDY    67  62  84 S3        30.13S
LAURINBURG     CLOUDY    69  63  81 E3        30.13R
$$

NCZ011-015-027-028-043-044-047-080-103-261400-
NORTHEASTERN NORTH CAROLINA

CITY           SKY/WX    TMP DP  RH WIND       PRES   REMARKS
ROCKY MT-WILSO CLOUDY    66  61  84 CALM      30.14R
GREENVILLE     CLOUDY    66  59  77 E3        30.15S
WASHINGTON     PTSUNNY   67  60  76 E3        30.14R
ELIZABETH CITY SUNNY     69  57  65 E7        30.14F
MANTEO         SUNNY     70  59  68 E8        30.14S
CAPE HATTERAS  SUNNY     74  62  66 VRB5      30.12F
$$

NCZ078-087-090-091-093-098-101-261400-
SOUTHEASTERN NORTH CAROLINA

CITY           SKY/WX    TMP DP  RH WIND       PRES   REMARKS
LUMBERTON      CLOUDY    69  62  78 E3        30.12R
GOLDSBORO      PTSUNNY   69  63  83 E5        30.12R
KINSTON        CLOUDY    68  61  77 E6        30.14S
KENANSVILLE    MOSUNNY   66  61  82 CALM      30.13S
NEW BERN       SUNNY     69  61  75 CALM      30.14R
CHERRY POINT   SUNNY     73  63  70 E10       30.13S
BEAUFORT       SUNNY     74  64  71 NE12      30.12R
JACKSONVILLE   SUNNY     71  63  75 E7        30.11S
WILMINGTON     SUNNY     71  64  78 E8        30.10S
$$





USA.gov is the U.S. government's official web portal to all federal, state and local government web resources and services.